,,,PA_Meas_PMT16A,,PR_Meas_QMR101_102,,RH_Meas_QMH101,,SR_Meas_QMS101,,TA_Meas_QMH101,,GenWind,,GenWind,
date,time,status,PA,status,PR,status,RH,status,SR,status,TA,status,DirAvg,status,SpdAvg,
2012-06-22, 00:00:05,VALID,1005.98,VALID,0,VALID,87.343,VALID,0,VALID,24.5796,VALID,357,VALID,0.828906,
2012-06-22, 00:01:05,VALID,1005.96,VALID,0,VALID,87.3125,VALID,0,VALID,24.5777,VALID,355,VALID,1.00391,
2012-06-22, 00:02:05,VALID,1005.97,VALID,0,VALID,87.221,VALID,0,VALID,24.5777,VALID,13,VALID,1.04844,
2012-06-22, 00:03:05,VALID,1005.94,VALID,0,VALID,87.1447,VALID,0,VALID,24.5972,VALID,355,VALID,0.762109,
2012-06-22, 00:04:05,VALID,1005.95,VALID,0,VALID,87.0989,VALID,0,VALID,24.6166,VALID,354,VALID,0.781641,
2012-06-22, 00:05:05,VALID,1005.95,VALID,0,VALID,87.1294,VALID,0,VALID,24.5972,VALID,9,VALID,0.877734,
2012-06-22, 00:06:05,VALID,1005.92,VALID,0,VALID,87.0989,VALID,0,VALID,24.5777,VALID,342,VALID,0.517969,
2012-06-22, 00:07:05,VALID,1005.93,VALID,0,VALID,87.1447,VALID,0,VALID,24.5777,VALID,348,VALID,1.12344,
2012-06-22, 00:08:05,VALID,1005.89,VALID,0,VALID,87.0989,VALID,0,VALID,24.599,VALID,337,VALID,0.837891,
2012-06-22, 00:09:05,VALID,1005.9,VALID,0,VALID,87.1218,VALID,0,VALID,24.5777,VALID,349,VALID,0.856641,
2012-06-22, 00:10:05,VALID,1005.85,VALID,0,VALID,87.1294,VALID,0,VALID,24.5777,VALID,355,VALID,0.846484,
2012-06-22, 00:11:05,VALID,1005.86,VALID,0,VALID,87.2286,VALID,0,VALID,24.5972,VALID,7,VALID,1.24805,
2012-06-22, 00:12:05,VALID,1005.85,VALID,0,VALID,87.1371,VALID,0,VALID,24.5777,VALID,355,VALID,1.04219,
2012-06-22, 00:13:05,VALID,1005.86,VALID,0,VALID,87.1371,VALID,0,VALID,24.5758,VALID,351,VALID,0.678125,
2012-06-22, 00:14:05,VALID,1005.85,VALID,0,VALID,87.1981,VALID,0.0815089,VALID,24.6166,VALID,346,VALID,1.2875,
2012-06-22, 00:15:05,VALID,1005.86,VALID,0,VALID,87.0226,VALID,0.0815089,VALID,24.6556,VALID,7,VALID,1.05469,
2012-06-22, 00:16:05,VALID,1005.88,VALID,0,VALID,86.9387,VALID,0.0815089,VALID,24.6556,VALID,350,VALID,0.522656,
2012-06-22, 00:17:05,VALID,1005.88,VALID,0,VALID,86.954,VALID,0,VALID,24.6556,VALID,350,VALID,0.626953,
2012-06-22, 00:18:05,VALID,1005.91,VALID,0,VALID,86.8472,VALID,0,VALID,24.6556,VALID,356,VALID,1.80781,
2012-06-22, 00:19:05,VALID,1005.92,VALID,0,VALID,86.5802,VALID,0,VALID,24.7335,VALID,8,VALID,0.803516,
2012-06-22, 00:20:05,VALID,1005.92,VALID,0,VALID,86.5115,VALID,0,VALID,24.714,VALID,337,VALID,0.763672,
2012-06-22, 00:21:05,VALID,1005.95,VALID,0,VALID,86.4047,VALID,0,VALID,24.714,VALID,350,VALID,0.780469,
2012-06-22, 00:22:05,VALID,1005.92,VALID,0,VALID,86.3894,VALID,0,VALID,24.7335,VALID,348,VALID,0.723047,
2012-06-22, 00:23:05,VALID,1005.94,VALID,0,VALID,86.42,VALID,0.0815089,VALID,24.7335,VALID,355,VALID,0.694531,
2012-06-22, 00:24:05,VALID,1005.94,VALID,0,VALID,86.4352,VALID,0,VALID,24.6945,VALID,4,VALID,0.655078,
2012-06-22, 00:25:05,VALID,1005.93,VALID,0,VALID,86.3208,VALID,0,VALID,24.6945,VALID,342,VALID,1.12383,
2012-06-22, 00:26:05,VALID,1005.95,VALID,0,VALID,86.214,VALID,0,VALID,24.6945,VALID,336,VALID,0.821484,
2012-06-22, 00:27:05,VALID,1005.95,VALID,0,VALID,86.2826,VALID,0,VALID,24.6732,VALID,350,VALID,0.660547,
2012-06-22, 00:28:05,VALID,1005.95,VALID,0,VALID,86.3589,VALID,0.0815089,VALID,24.6964,VALID,360,VALID,1.18672,
2012-06-22, 00:29:05,VALID,1005.92,VALID,0,VALID,86.4047,VALID,0,VALID,24.675,VALID,6,VALID,0.934766,
2012-06-22, 00:30:05,VALID,1005.96,VALID,0,VALID,86.5039,VALID,0,VALID,24.6556,VALID,335,VALID,0.641406,
2012-06-22, 00:31:05,VALID,1005.93,VALID,0,VALID,86.5878,VALID,0.0815089,VALID,24.6166,VALID,350,VALID,0.685156,
2012-06-22, 00:32:05,VALID,1005.97,VALID,0,VALID,86.687,VALID,0.0815089,VALID,24.5972,VALID,355,VALID,0.778125,
2012-06-22, 00:33:05,VALID,1005.97,VALID,0,VALID,86.8472,VALID,0,VALID,24.5564,VALID,358,VALID,0.651563,
2012-06-22, 00:34:05,VALID,1005.96,VALID,0,VALID,86.8548,VALID,0,VALID,24.5777,VALID,352,VALID,0.746875,
2012-06-22, 00:35:05,VALID,1005.95,VALID,0,VALID,86.9158,VALID,0,VALID,24.5582,VALID,352,VALID,0.930859,
2012-06-22, 00:36:05,VALID,1005.97,VALID,0,VALID,87.1066,VALID,0,VALID,24.5388,VALID,357,VALID,1.36211,
2012-06-22, 00:37:05,VALID,1005.97,VALID,0,VALID,87.2515,VALID,0,VALID,24.5174,VALID,353,VALID,0.522656,
2012-06-22, 00:38:05,VALID,1005.96,VALID,0,VALID,87.2896,VALID,0.0815089,VALID,24.498,VALID,351,VALID,0.883984,
2012-06-22, 00:39:05,VALID,1005.95,VALID,0,VALID,87.2896,VALID,0.0815089,VALID,24.5193,VALID,350,VALID,0.645703,
2012-06-22, 00:40:05,VALID,1005.95,VALID,0,VALID,87.3583,VALID,0,VALID,24.4998,VALID,350,VALID,0.755859,
2012-06-22, 00:41:05,VALID,1005.95,VALID,0,VALID,87.488,VALID,0,VALID,24.4804,VALID,350,VALID,0.589844,
2012-06-22, 00:42:05,VALID,1005.93,VALID,0,VALID,87.6101,VALID,0,VALID,24.4396,VALID,345,VALID,0.679688,
2012-06-22, 00:43:05,VALID,1005.93,VALID,0,VALID,87.7855,VALID,0,VALID,24.4414,VALID,339,VALID,0.591406,
2012-06-22, 00:44:05,VALID,1005.92,VALID,0,VALID,87.9457,VALID,0.0815089,VALID,24.4414,VALID,339,VALID,0.720703,
2012-06-22, 00:45:05,VALID,1005.92,VALID,0,VALID,88.0602,VALID,0,VALID,24.4006,VALID,342,VALID,0.79375,
2012-06-22, 00:46:05,VALID,1005.93,VALID,0,VALID,88.1059,VALID,0,VALID,24.422,VALID,354,VALID,0.584766,
2012-06-22, 00:47:05,VALID,1005.95,VALID,0,VALID,88.1059,VALID,0,VALID,24.4025,VALID,350,VALID,0.928906,
2012-06-22, 00:48:05,VALID,1005.9,VALID,0,VALID,88.0678,VALID,0,VALID,24.4025,VALID,347,VALID,0.573438,
2012-06-22, 00:49:05,VALID,1005.94,VALID,0,VALID,88.0449,VALID,0,VALID,24.4238,VALID,350,VALID,0.782812,
2012-06-22, 00:50:05,VALID,1005.92,VALID,0,VALID,88.0296,VALID,0,VALID,24.4025,VALID,350,VALID,0.63125,
2012-06-22, 00:51:05,VALID,1005.93,VALID,0,VALID,87.8923,VALID,0,VALID,24.4025,VALID,346,VALID,1.36641,
2012-06-22, 00:52:05,VALID,1005.9,VALID,0,VALID,87.7474,VALID,0.0815089,VALID,24.4414,VALID,353,VALID,1.02188,
2012-06-22, 00:53:05,VALID,1005.91,VALID,0,VALID,87.6406,VALID,0,VALID,24.4414,VALID,348,VALID,0.742188,
2012-06-22, 00:54:05,VALID,1005.87,VALID,0,VALID,87.5185,VALID,0.0815089,VALID,24.4609,VALID,14,VALID,0.778906,
2012-06-22, 00:55:05,VALID,1005.89,VALID,0,VALID,87.4041,VALID,0,VALID,24.4609,VALID,344,VALID,0.858984,
2012-06-22, 00:56:05,VALID,1005.88,VALID,0,VALID,87.3736,VALID,0,VALID,24.4609,VALID,358,VALID,0.636719,
2012-06-22, 00:57:05,VALID,1005.91,VALID,0,VALID,87.16,VALID,0.0815089,VALID,24.4609,VALID,352,VALID,1.01133,
2012-06-22, 00:58:05,VALID,1005.89,VALID,0,VALID,87.1981,VALID,0,VALID,24.4609,VALID,325,VALID,0.625781,
2012-06-22, 00:59:05,VALID,1005.86,VALID,0,VALID,87.0684,VALID,0,VALID,24.4609,VALID,4,VALID,1.05234,
2012-06-22, 01:00:05,VALID,1005.84,VALID,0,VALID,87.0226,VALID,0,VALID,24.4804,VALID,360,VALID,0.651563,
2012-06-22, 01:01:05,VALID,1005.84,VALID,0,VALID,86.9235,VALID,0,VALID,24.4785,VALID,360,VALID,0.941797,
2012-06-22, 01:02:05,VALID,1005.8,VALID,0,VALID,86.9158,VALID,0,VALID,24.4998,VALID,325,VALID,0.629687,
2012-06-22, 01:03:05,VALID,1005.83,VALID,0,VALID,86.9082,VALID,0,VALID,24.4998,VALID,329,VALID,0.510938,
2012-06-22, 01:04:05,VALID,1005.79,VALID,0,VALID,86.9387,VALID,0,VALID,24.4609,VALID,360,VALID,1.10039,
2012-06-22, 01:05:05,VALID,1005.78,VALID,0,VALID,86.9769,VALID,0,VALID,24.5017,VALID,355,VALID,0.616406,
2012-06-22, 01:06:05,VALID,1005.76,VALID,0,VALID,86.9921,VALID,0,VALID,24.4822,VALID,334,VALID,0.474219,
2012-06-22, 01:07:05,VALID,1005.74,VALID,0,VALID,87.0074,VALID,0,VALID,24.4609,VALID,344,VALID,0.811719,
2012-06-22, 01:08:05,VALID,1005.74,VALID,0,VALID,87.0989,VALID,0,VALID,24.4414,VALID,343,VALID,0.679297,
2012-06-22, 01:09:05,VALID,1005.72,VALID,0,VALID,87.0532,VALID,0,VALID,24.422,VALID,343,VALID,0.979688,
2012-06-22, 01:10:05,VALID,1005.73,VALID,0,VALID,87.1523,VALID,0,VALID,24.422,VALID,351,VALID,0.590234,
2012-06-22, 01:11:05,VALID,1005.73,VALID,0,VALID,87.3278,VALID,0,VALID,24.4025,VALID,347,VALID,0.36875,
2012-06-22, 01:12:05,VALID,1005.72,VALID,0,VALID,87.4193,VALID,0,VALID,24.4043,VALID,348,VALID,0.477344,
2012-06-22, 01:13:05,VALID,1005.71,VALID,0,VALID,87.4804,VALID,0.0815089,VALID,24.383,VALID,346,VALID,1.10312,
2012-06-22, 01:14:05,VALID,1005.69,VALID,0,VALID,87.488,VALID,0,VALID,24.4238,VALID,340,VALID,0.795703,
2012-06-22, 01:15:05,VALID,1005.7,VALID,0,VALID,87.5109,VALID,0,VALID,24.383,VALID,340,VALID,0.735547,
2012-06-22, 01:16:05,VALID,1005.66,VALID,0,VALID,87.6406,VALID,0,VALID,24.4043,VALID,345,VALID,0.842188,
2012-06-22, 01:17:05,VALID,1005.63,VALID,0,VALID,87.7474,VALID,0.0815089,VALID,24.383,VALID,344,VALID,1.16289,
2012-06-22, 01:18:05,VALID,1005.63,VALID,0,VALID,87.8923,VALID,0,VALID,24.3441,VALID,350,VALID,0.573047,
2012-06-22, 01:19:05,VALID,1005.61,VALID,0,VALID,88.0296,VALID,0.0815089,VALID,24.3246,VALID,350,VALID,0.694922,
2012-06-22, 01:20:05,VALID,1005.58,VALID,0,VALID,88.167,VALID,0,VALID,24.2857,VALID,346,VALID,0.675781,
2012-06-22, 01:21:05,VALID,1005.57,VALID,0,VALID,88.2661,VALID,0.0815089,VALID,24.2662,VALID,354,VALID,1.13437,
2012-06-22, 01:22:05,VALID,1005.57,VALID,0,VALID,88.4187,VALID,0,VALID,24.2468,VALID,342,VALID,0.911328,
2012-06-22, 01:23:05,VALID,1005.59,VALID,0,VALID,88.5255,VALID,0,VALID,24.2273,VALID,341,VALID,0.785547,
2012-06-22, 01:24:05,VALID,1005.61,VALID,0,VALID,88.6705,VALID,0,VALID,24.2273,VALID,352,VALID,1.12617,
2012-06-22, 01:25:05,VALID,1005.55,VALID,0,VALID,88.6247,VALID,0,VALID,24.2273,VALID,1,VALID,0.789844,
2012-06-22, 01:26:05,VALID,1005.58,VALID,0,VALID,88.5789,VALID,0,VALID,24.2468,VALID,345,VALID,1.14648,
2012-06-22, 01:27:05,VALID,1005.57,VALID,0,VALID,88.4264,VALID,0,VALID,24.2681,VALID,339,VALID,1.38789,
2012-06-22, 01:28:05,VALID,1005.58,VALID,0,VALID,88.3272,VALID,0,VALID,24.2662,VALID,333,VALID,0.96875,
2012-06-22, 01:29:05,VALID,1005.57,VALID,0,VALID,88.3348,VALID,0,VALID,24.2662,VALID,345,VALID,0.855859,
2012-06-22, 01:30:05,VALID,1005.51,VALID,0,VALID,88.2814,VALID,0,VALID,24.2662,VALID,350,VALID,1.01172,
2012-06-22, 01:31:05,VALID,1005.51,VALID,0,VALID,88.1288,VALID,0,VALID,24.2857,VALID,338,VALID,0.908594,
2012-06-22, 01:32:05,VALID,1005.49,VALID,0,VALID,88.0144,VALID,0.0815089,VALID,24.2857,VALID,340,VALID,0.942969,
2012-06-22, 01:33:05,VALID,1005.45,VALID,0,VALID,88.0068,VALID,0.0815089,VALID,24.3246,VALID,359,VALID,0.776953,
2012-06-22, 01:34:05,VALID,1005.45,VALID,0,VALID,87.8008,VALID,0,VALID,24.3246,VALID,354,VALID,1.15117,
2012-06-22, 01:35:05,VALID,1005.42,VALID,0,VALID,87.6024,VALID,0,VALID,24.3441,VALID,324,VALID,0.958203,
2012-06-22, 01:36:05,VALID,1005.4,VALID,0,VALID,87.4804,VALID,0,VALID,24.3636,VALID,343,VALID,0.916797,
2012-06-22, 01:37:05,VALID,1005.37,VALID,0,VALID,87.488,VALID,0,VALID,24.383,VALID,356,VALID,0.882422,
2012-06-22, 01:38:05,VALID,1005.36,VALID,0,VALID,87.5567,VALID,0,VALID,24.383,VALID,354,VALID,0.537891,
2012-06-22, 01:39:05,VALID,1005.33,VALID,0,VALID,87.4651,VALID,0,VALID,24.3654,VALID,350,VALID,1.69023,
2012-06-22, 01:40:05,VALID,1005.33,VALID,0,VALID,87.3583,VALID,0,VALID,24.3849,VALID,346,VALID,0.755078,
2012-06-22, 01:41:05,VALID,1005.32,VALID,0,VALID,87.2973,VALID,0,VALID,24.3636,VALID,347,VALID,1.00625,
2012-06-22, 01:42:05,VALID,1005.3,VALID,0,VALID,87.2668,VALID,0,VALID,24.3654,VALID,344,VALID,1.31562,
2012-06-22, 01:43:05,VALID,1005.27,VALID,0,VALID,87.3202,VALID,0,VALID,24.4062,VALID,347,VALID,0.2,
2012-06-22, 01:44:05,VALID,1005.29,VALID,0,VALID,87.4422,VALID,0,VALID,24.3654,VALID,353,VALID,1.31289,
2012-06-22, 01:45:05,VALID,1005.28,VALID,0,VALID,87.4804,VALID,0,VALID,24.3459,VALID,354,VALID,0.483984,
2012-06-22, 01:46:05,VALID,1005.27,VALID,0,VALID,87.4346,VALID,0,VALID,24.3459,VALID,351,VALID,0.847266,
2012-06-22, 01:47:05,VALID,1005.23,VALID,0,VALID,87.4651,VALID,0,VALID,24.3459,VALID,345,VALID,0.678125,
2012-06-22, 01:48:05,VALID,1005.21,VALID,0,VALID,87.4422,VALID,0,VALID,24.3459,VALID,351,VALID,0.958594,
2012-06-22, 01:49:05,VALID,1005.22,VALID,0,VALID,87.4651,VALID,0,VALID,24.3459,VALID,1,VALID,0.196484,
2012-06-22, 01:50:05,VALID,1005.25,VALID,0,VALID,87.488,VALID,0,VALID,24.3265,VALID,356,VALID,0.630859,
2012-06-22, 01:51:05,VALID,1005.24,VALID,0,VALID,87.4651,VALID,0,VALID,24.2857,VALID,327,VALID,0.630469,
2012-06-22, 01:52:05,VALID,1005.22,VALID,0,VALID,87.4422,VALID,0,VALID,24.307,VALID,326,VALID,0.507813,
2012-06-22, 01:53:05,VALID,1005.21,VALID,0,VALID,87.4804,VALID,0,VALID,24.307,VALID,347,VALID,0.265234,
2012-06-22, 01:54:05,VALID,1005.22,VALID,0,VALID,87.5033,VALID,0.0815089,VALID,24.2857,VALID,347,VALID,0.015625,
2012-06-22, 01:55:05,VALID,1005.2,VALID,0,VALID,87.6787,VALID,0.0815089,VALID,24.2662,VALID,347,VALID,0.0671875,
2012-06-22, 01:56:05,VALID,1005.17,VALID,0,VALID,87.8313,VALID,0.0815089,VALID,24.2273,VALID,348,VALID,0.451562,
2012-06-22, 01:57:05,VALID,1005.18,VALID,0,VALID,87.9915,VALID,0.0815089,VALID,24.1884,VALID,348,VALID,0.339844,
2012-06-22, 01:58:05,VALID,1005.16,VALID,0,VALID,88.0831,VALID,0.0815089,VALID,24.1884,VALID,348,VALID,0.103516,
2012-06-22, 01:59:05,VALID,1005.15,VALID,0,VALID,88.2051,VALID,0.0815089,VALID,24.1281,VALID,324,VALID,0.196094,
2012-06-22, 02:00:05,VALID,1005.14,VALID,0,VALID,88.3577,VALID,0.0815089,VALID,24.0892,VALID,306,VALID,0.0328125,
2012-06-22, 02:01:05,VALID,1005.14,VALID,0,VALID,88.5484,VALID,0.0815089,VALID,24.0697,VALID,307,VALID,0.0386719,
2012-06-22, 02:02:05,VALID,1005.15,VALID,0,VALID,88.6705,VALID,0.0815089,VALID,24.0485,VALID,328,VALID,0.334375,
2012-06-22, 02:03:05,VALID,1005.14,VALID,0,VALID,88.7849,VALID,0.0815089,VALID,24.0716,VALID,346,VALID,0.427734,
2012-06-22, 02:04:05,VALID,1005.16,VALID,0,VALID,88.8002,VALID,0.0815089,VALID,24.0539,VALID,345,VALID,0.159766,
2012-06-22, 02:05:05,VALID,1005.16,VALID,0,VALID,88.8459,VALID,0.0815089,VALID,24.0132,VALID,345,VALID,0,
2012-06-22, 02:06:05,VALID,1005.16,VALID,0,VALID,88.8688,VALID,0,VALID,23.9937,VALID,345,VALID,0,
2012-06-22, 02:07:05,VALID,1005.15,VALID,0,VALID,89.0061,VALID,0,VALID,23.9335,VALID,345,VALID,0,
2012-06-22, 02:08:05,VALID,1005.17,VALID,0,VALID,89.1587,VALID,0,VALID,23.9159,VALID,345,VALID,0,
2012-06-22, 02:09:05,VALID,1005.18,VALID,0,VALID,89.3113,VALID,0,VALID,23.8964,VALID,345,VALID,0,
2012-06-22, 02:10:05,VALID,1005.15,VALID,0,VALID,89.5097,VALID,0.0815089,VALID,23.8575,VALID,345,VALID,0,
2012-06-22, 02:11:05,VALID,1005.15,VALID,0,VALID,89.6241,VALID,0,VALID,23.838,VALID,352,VALID,0.403516,
2012-06-22, 02:12:04,VALID,1005.16,VALID,0,VALID,89.6622,VALID,0,VALID,23.7991,VALID,352,VALID,0.00859375,
2012-06-22, 02:13:04,VALID,1005.14,VALID,0,VALID,89.7614,VALID,0,VALID,23.7389,VALID,352,VALID,0,
2012-06-22, 02:14:04,VALID,1005.14,VALID,0,VALID,89.8301,VALID,0.0815089,VALID,23.7601,VALID,352,VALID,0,
2012-06-22, 02:15:04,VALID,1005.11,VALID,0,VALID,89.914,VALID,0,VALID,23.7,VALID,352,VALID,0,
2012-06-22, 02:16:04,VALID,1005.1,VALID,0,VALID,90.0894,VALID,0,VALID,23.6823,VALID,352,VALID,0,
2012-06-22, 02:17:04,VALID,1005.1,VALID,0,VALID,90.2573,VALID,0.0815089,VALID,23.6628,VALID,352,VALID,0,
2012-06-22, 02:18:04,VALID,1005.11,VALID,0,VALID,90.2115,VALID,0.0815089,VALID,23.6221,VALID,352,VALID,0,
2012-06-22, 02:19:04,VALID,1005.06,VALID,0,VALID,90.1734,VALID,0,VALID,23.585,VALID,352,VALID,0,
2012-06-22, 02:20:04,VALID,1005.07,VALID,0,VALID,90.5014,VALID,0.0815089,VALID,23.5266,VALID,352,VALID,0.0304688,
2012-06-22, 02:21:04,VALID,1005.07,VALID,0,VALID,90.509,VALID,0.0815089,VALID,23.447,VALID,352,VALID,0,
2012-06-22, 02:22:04,VALID,1005.08,VALID,0,VALID,90.7684,VALID,0.0815089,VALID,23.3886,VALID,352,VALID,0,
2012-06-22, 02:23:04,VALID,1005.04,VALID,0,VALID,90.9744,VALID,0.0815089,VALID,23.3709,VALID,352,VALID,0,
2012-06-22, 02:24:04,VALID,1005.02,VALID,0,VALID,91.127,VALID,0,VALID,23.3143,VALID,352,VALID,0,
2012-06-22, 02:25:04,VALID,1005.02,VALID,0,VALID,91.2567,VALID,0,VALID,23.2541,VALID,352,VALID,0,
2012-06-22, 02:26:04,VALID,1005.02,VALID,0,VALID,91.3787,VALID,0,VALID,23.2347,VALID,352,VALID,0,
2012-06-22, 02:27:04,VALID,1004.98,VALID,0,VALID,91.5389,VALID,0,VALID,23.217,VALID,352,VALID,0,
2012-06-22, 02:28:04,VALID,1005.01,VALID,0,VALID,91.661,VALID,0,VALID,23.1975,VALID,352,VALID,0,
2012-06-22, 02:29:04,VALID,1005,VALID,0,VALID,91.8517,VALID,0,VALID,23.1586,VALID,352,VALID,0,
2012-06-22, 02:30:04,VALID,1005.03,VALID,0,VALID,91.7754,VALID,0,VALID,23.1391,VALID,352,VALID,0.223828,
2012-06-22, 02:31:04,VALID,1005.06,VALID,0,VALID,91.8746,VALID,0,VALID,23.0807,VALID,352,VALID,0.267188,
2012-06-22, 02:32:04,VALID,1005.06,VALID,0,VALID,91.9662,VALID,0,VALID,23.0224,VALID,352,VALID,0,
2012-06-22, 02:33:04,VALID,1005.04,VALID,0,VALID,92.0119,VALID,0,VALID,22.964,VALID,352,VALID,0,
2012-06-22, 02:34:04,VALID,1005.07,VALID,0,VALID,92.0806,VALID,0,VALID,22.9251,VALID,352,VALID,0,
2012-06-22, 02:35:04,VALID,1005.1,VALID,0,VALID,92.3552,VALID,0,VALID,22.8844,VALID,352,VALID,0,
2012-06-22, 02:36:04,VALID,1005.09,VALID,0,VALID,92.4773,VALID,0,VALID,22.8861,VALID,352,VALID,0,
2012-06-22, 02:37:04,VALID,1005.07,VALID,0,VALID,92.5612,VALID,0,VALID,22.8667,VALID,352,VALID,0,
2012-06-22, 02:38:04,VALID,1005.09,VALID,0,VALID,92.6528,VALID,0,VALID,22.8472,VALID,352,VALID,0,
2012-06-22, 02:39:04,VALID,1005.09,VALID,0,VALID,92.7824,VALID,0,VALID,22.826,VALID,352,VALID,0,
2012-06-22, 02:40:04,VALID,1005.07,VALID,0,VALID,92.8816,VALID,0,VALID,22.8278,VALID,352,VALID,0,
2012-06-22, 02:41:04,VALID,1005.04,VALID,0,VALID,92.9961,VALID,0,VALID,22.7888,VALID,352,VALID,0,
2012-06-22, 02:42:04,VALID,1005.07,VALID,0,VALID,93.0266,VALID,0,VALID,22.7694,VALID,352,VALID,0,
2012-06-22, 02:43:04,VALID,1005.04,VALID,0,VALID,93.0723,VALID,0,VALID,22.7499,VALID,352,VALID,0.478125,
2012-06-22, 02:44:04,VALID,1005.06,VALID,0,VALID,93.202,VALID,0,VALID,22.7305,VALID,352,VALID,0.441797,
2012-06-22, 02:45:04,VALID,1005.03,VALID,0,VALID,93.2631,VALID,0,VALID,22.6898,VALID,352,VALID,0.394922,
2012-06-22, 02:46:04,VALID,1005.05,VALID,0,VALID,93.3622,VALID,0,VALID,22.6509,VALID,352,VALID,0.192188,
2012-06-22, 02:47:04,VALID,1005.02,VALID,0,VALID,93.4843,VALID,0,VALID,22.6315,VALID,352,VALID,0.226563,
2012-06-22, 02:48:04,VALID,1005.04,VALID,0,VALID,93.553,VALID,0,VALID,22.6721,VALID,352,VALID,0.416016,
2012-06-22, 02:49:04,VALID,1005,VALID,0,VALID,93.5911,VALID,0,VALID,22.6315,VALID,352,VALID,0.395703,
2012-06-22, 02:50:04,VALID,1005,VALID,0,VALID,93.6826,VALID,0,VALID,22.6332,VALID,352,VALID,0.421094,
2012-06-22, 02:51:04,VALID,1005.01,VALID,0,VALID,93.7589,VALID,0,VALID,22.6137,VALID,352,VALID,0.464844,
2012-06-22, 02:52:04,VALID,1004.99,VALID,0,VALID,93.7971,VALID,0,VALID,22.6137,VALID,352,VALID,0.325391,
2012-06-22, 02:53:04,VALID,1004.97,VALID,0,VALID,93.8276,VALID,0,VALID,22.5536,VALID,352,VALID,0,
2012-06-22, 02:54:04,VALID,1004.99,VALID,0,VALID,93.8963,VALID,0,VALID,22.5748,VALID,352,VALID,0,
2012-06-22, 02:55:04,VALID,1005.01,VALID,0,VALID,94.0107,VALID,0,VALID,22.5942,VALID,352,VALID,0,
2012-06-22, 02:56:04,VALID,1004.96,VALID,0,VALID,93.9954,VALID,0,VALID,22.5942,VALID,352,VALID,0,
2012-06-22, 02:57:04,VALID,1004.97,VALID,0,VALID,93.9802,VALID,0,VALID,22.5536,VALID,352,VALID,0,
2012-06-22, 02:58:04,VALID,1004.96,VALID,0,VALID,93.9802,VALID,0,VALID,22.5342,VALID,352,VALID,0.0671875,
2012-06-22, 02:59:04,VALID,1004.96,VALID,0,VALID,94.0031,VALID,0,VALID,22.5147,VALID,352,VALID,0,
2012-06-22, 03:00:04,VALID,1004.95,VALID,0,VALID,94.0565,VALID,0,VALID,22.5553,VALID,352,VALID,0.0105469,
2012-06-22, 03:01:04,VALID,1004.94,VALID,0,VALID,94.0794,VALID,0,VALID,22.5359,VALID,352,VALID,0,
2012-06-22, 03:02:04,VALID,1004.92,VALID,0,VALID,94.0641,VALID,0,VALID,22.4953,VALID,352,VALID,0,
2012-06-22, 03:03:04,VALID,1004.92,VALID,0,VALID,94.087,VALID,0,VALID,22.4758,VALID,352,VALID,0,
2012-06-22, 03:04:04,VALID,1004.86,VALID,0,VALID,94.1022,VALID,0,VALID,22.497,VALID,352,VALID,0,
2012-06-22, 03:05:04,VALID,1004.86,VALID,0,VALID,94.1556,VALID,0,VALID,22.4563,VALID,352,VALID,0,
2012-06-22, 03:06:04,VALID,1004.86,VALID,0,VALID,94.2167,VALID,0,VALID,22.4563,VALID,352,VALID,0,
2012-06-22, 03:07:04,VALID,1004.85,VALID,0,VALID,94.3082,VALID,0,VALID,22.4953,VALID,352,VALID,0,
2012-06-22, 03:08:04,VALID,1004.85,VALID,0,VALID,94.3006,VALID,0,VALID,22.4953,VALID,352,VALID,0,
2012-06-22, 03:09:04,VALID,1004.86,VALID,0,VALID,94.2777,VALID,0,VALID,22.4953,VALID,352,VALID,0,
2012-06-22, 03:10:04,VALID,1004.85,VALID,0,VALID,94.2167,VALID,0,VALID,22.4563,VALID,352,VALID,0,
2012-06-22, 03:11:04,VALID,1004.85,VALID,0,VALID,94.293,VALID,0,VALID,22.4563,VALID,352,VALID,0,
2012-06-22, 03:12:04,VALID,1004.88,VALID,0,VALID,94.3006,VALID,0,VALID,22.4352,VALID,352,VALID,0,
2012-06-22, 03:13:04,VALID,1004.86,VALID,0,VALID,94.3158,VALID,0.0815089,VALID,22.458,VALID,352,VALID,0,
2012-06-22, 03:14:04,VALID,1004.85,VALID,0,VALID,94.3158,VALID,0,VALID,22.4174,VALID,352,VALID,0,
2012-06-22, 03:15:04,VALID,1004.84,VALID,0,VALID,94.3616,VALID,0,VALID,22.4174,VALID,352,VALID,0.38125,
2012-06-22, 03:16:04,VALID,1004.85,VALID,0,VALID,94.415,VALID,0,VALID,22.4386,VALID,352,VALID,0.484375,
2012-06-22, 03:17:04,VALID,1004.84,VALID,0,VALID,94.4227,VALID,0,VALID,22.4369,VALID,352,VALID,0.348437,
2012-06-22, 03:18:04,VALID,1004.81,VALID,0,VALID,94.4379,VALID,0,VALID,22.4191,VALID,352,VALID,0.226172,
2012-06-22, 03:19:04,VALID,1004.82,VALID,0,VALID,94.4608,VALID,0,VALID,22.4386,VALID,352,VALID,0.214453,
2012-06-22, 03:20:04,VALID,1004.82,VALID,0,VALID,94.4684,VALID,0,VALID,22.3963,VALID,352,VALID,0.138281,
2012-06-22, 03:21:04,VALID,1004.82,VALID,0,VALID,94.5447,VALID,0,VALID,22.3963,VALID,352,VALID,0,
2012-06-22, 03:22:04,VALID,1004.85,VALID,0,VALID,94.5523,VALID,0,VALID,22.458,VALID,352,VALID,0,
2012-06-22, 03:23:04,VALID,1004.8,VALID,0,VALID,94.6134,VALID,0,VALID,22.4563,VALID,352,VALID,0,
2012-06-22, 03:24:04,VALID,1004.83,VALID,0,VALID,94.621,VALID,0,VALID,22.4775,VALID,352,VALID,0,
2012-06-22, 03:25:04,VALID,1004.82,VALID,0,VALID,94.5447,VALID,0,VALID,22.458,VALID,352,VALID,0,
2012-06-22, 03:26:04,VALID,1004.83,VALID,0,VALID,94.56,VALID,0,VALID,22.4369,VALID,352,VALID,0,
2012-06-22, 03:27:04,VALID,1004.83,VALID,0,VALID,94.5676,VALID,0,VALID,22.4174,VALID,352,VALID,0,
2012-06-22, 03:28:04,VALID,1004.82,VALID,0,VALID,94.56,VALID,0,VALID,22.398,VALID,352,VALID,0,
2012-06-22, 03:29:04,VALID,1004.85,VALID,0,VALID,94.5523,VALID,0,VALID,22.4191,VALID,354,VALID,0.310156,
2012-06-22, 03:30:04,VALID,1004.85,VALID,0,VALID,94.6515,VALID,0,VALID,22.398,VALID,354,VALID,0.275391,
2012-06-22, 03:31:04,VALID,1004.85,VALID,0,VALID,94.766,VALID,0,VALID,22.4563,VALID,335,VALID,0.643359,
2012-06-22, 03:32:04,VALID,1004.86,VALID,0,VALID,94.8651,VALID,0,VALID,22.5553,VALID,338,VALID,0.773047,
2012-06-22, 03:33:04,VALID,1004.87,VALID,0,VALID,94.949,VALID,0,VALID,22.6526,VALID,338,VALID,0.636328,
2012-06-22, 03:34:04,VALID,1004.84,VALID,0,VALID,94.9567,VALID,0,VALID,22.7093,VALID,347,VALID,1.02813,
2012-06-22, 03:35:04,VALID,1004.86,VALID,0,VALID,94.8956,VALID,0,VALID,22.7871,VALID,344,VALID,0.926172,
2012-06-22, 03:36:04,VALID,1004.84,VALID,0,VALID,94.7431,VALID,0,VALID,22.8455,VALID,343,VALID,0.496484,
2012-06-22, 03:37:04,VALID,1004.82,VALID,0,VALID,94.5447,VALID,0,VALID,22.9039,VALID,349,VALID,1.21523,
2012-06-22, 03:38:04,VALID,1004.83,VALID,0,VALID,94.3082,VALID,0,VALID,23.0029,VALID,353,VALID,0.931641,
2012-06-22, 03:39:04,VALID,1004.82,VALID,0,VALID,93.8276,VALID,0,VALID,23.0613,VALID,357,VALID,1.23633,
2012-06-22, 03:40:04,VALID,1004.81,VALID,0,VALID,93.2859,VALID,0,VALID,23.1568,VALID,340,VALID,0.965625,
2012-06-22, 03:41:04,VALID,1004.81,VALID,0,VALID,92.8206,VALID,0,VALID,23.2347,VALID,326,VALID,0.663281,
2012-06-22, 03:42:04,VALID,1004.83,VALID,0,VALID,92.3476,VALID,0,VALID,23.2931,VALID,350,VALID,1.22539,
2012-06-22, 03:43:04,VALID,1004.82,VALID,0,VALID,91.8899,VALID,0,VALID,23.3514,VALID,340,VALID,0.687109,
2012-06-22, 03:44:04,VALID,1004.85,VALID,0,VALID,91.4703,VALID,0,VALID,23.4505,VALID,340,VALID,0.699219,
2012-06-22, 03:45:04,VALID,1004.83,VALID,0,VALID,90.921,VALID,0,VALID,23.5089,VALID,331,VALID,0.822266,